EUTELSAT 8 WEST B

Last updated on June 17, 2019, 3:36 a.m. UTC

1 40875U 15039B   19167.37187715 -.00000073  00000-0  00000+0 0  9995
2 40875   0.0696 346.4089 0004331 103.1524 300.6626  1.00271392 14045
UTC
Height (km)
Latitude
Longitude
Inclination
Orbital Period
UTC large
Height (km)
Speed (km/s)
/
Latitude / Longitude
Inclination (degrees)
Orbital Period (minutes)
Azimuth
Elevation
Range (km)
Doppler Factor
iOS Compass Heading
iOS Angle

Next 30 passes for location: Hong Kong

Rise time Rise Azimuth (degrees) Set time Set Azimuth (degrees) Duration Max altitude (degrees)

No matching passes for this satellites